User: anonymous   Login
Location: Unspecified
(0.0000°N, 0.0000°E)
Time: 18:56:06
(UTC+00:00)
Language:

Kosmos-2004 - Orbit

View from above orbital plane
View from above orbital plane
View from above satellite
View from above satellite

Ground track
Ground track

The orbit data is extracted from the following two-line orbital elements,

1 19826U 89017A   19341.49531663  .00000022  00000-0  69918-5 0  9998
2 19826  82.9538 238.9208 0031101  33.6974 139.0654 13.72281830541758
Epoch (UTC): 07 December 2019 11:53:15
Eccentricity: 0.0031101
inclination: 82.9538°
perigee height: 968 km
apogee height: 1014 km
right ascension of ascending node: 238.9208°
argument of perigee: 33.6974°
revolutions per day: 13.72281830
mean anomaly at epoch: 139.0654°
orbit number at epoch: 54175

The dashed part of the orbit path shows where the satellite is in the earth's shadow,  

DLR